Flag for U.S.A. Weather past 2 weeks in Fairbanks, Alaska, U.S.A.

Now
51 °F

Sunny.


Feels Like: 49 °F
Forecast: 44 / 63 °F
Wind: 7 mph from East

Location: Wainwright U. S. Army Airfield

Current Time: Sep 3, 2015 at 11:19:10 AM

Latest Report: Sep 3, 2015 at 9:58 AM


Visibility: 9 mi

Pressure: 29.95 "Hg

Humidity: 66%

Dew point: 40 °F

Location of FairbanksLocation

Historic Weather in Fairbanks — Graph

°F

Fairbanks temperature yesterday

Maximum temperature yesterday: 61 °F (at 5:58 PM)
Minimum temperature yesterday: 31 °F (at 6:58 AM)
Average temperature yesterday: 45 °F

Past Weeks' High & Low Weather Summary

 TemperatureHumidityPressure
High65 °F (Aug 21, 5:58 PM)100% (Aug 25, 6:03 PM)30.19 "Hg (Aug 25, 6:03 PM)
Low31 °F (Sep 2, 6:58 AM)36% (Sep 2, 4:58 PM)29.38 "Hg (Aug 29, 9:02 PM)
Average48 °F80%29.88 "Hg
* Reported Aug 19 9:58 AM — Sep 3 9:58 AM, Fairbanks, Weather by CustomWeather, © 2015

Note: Actual official high and low records may vary slightly from our data, if they occured in-between our weather recording intervals... More about our weather records

Advertising

Fairbanks weather history for previous 24 hours

 ConditionsComfort  
Time TempWeatherWind HumidityBarometerVisibility
9:58 AM
Thu, Sep 3
51 °FSunny.7 mph66%29.95 "Hg9 mi
8:58 AM46 °FOvercast.9 mph75%29.95 "Hg9 mi
7:58 AM44 °FPartly sunny.7 mph80%29.96 "Hg13 mi
6:58 AM43 °FOvercast.10 mph82%29.96 "Hg10 mi
5:58 AM45 °FMostly cloudy.10 mph79%29.97 "Hg9 mi
4:58 AM44 °FMostly cloudy.2 mph77%29.98 "Hg9 mi
3:58 AM46 °FPassing clouds.8 mph74%29.96 "Hg10 mi
2:58 AM47 °FOvercast.6 mph70%29.97 "Hg10 mi
1:58 AM47 °FMostly cloudy.10 mph72%29.97 "Hg10 mi
12:58 AM47 °FPassing clouds.9 mph74%29.97 "Hg10 mi
11:58 PM
Wed, Sep 2
45 °FPassing clouds.No wind79%29.98 "Hg10 mi
10:58 PM47 °FPassing clouds.No wind75%29.98 "Hg10 mi
9:58 PM46 °FSunny.2 mph84%29.99 "Hg9 mi
8:58 PM51 °FSunny.No wind75%30.00 "Hg10 mi
7:58 PM58 °FSunny.2 mph47%30.00 "Hg10 mi
6:58 PM61 °FSunny.No wind39%30.00 "Hg10 mi
5:58 PM61 °FSunny.5 mph36%30.02 "Hg10 mi
4:58 PM61 °FSunny.2 mph36%30.03 "Hg10 mi
2:58 PM57 °FSunny.6 mph40%30.05 "Hg10 mi
1:58 PM56 °FSunny.3 mph41%30.09 "Hg10 mi
12:58 PM53 °FSunny.6 mph44%30.09 "Hg10 mi
11:58 AM51 °FSunny.7 mph50%30.11 "Hg10 mi
Weather by CustomWeather, © 2015

See weather overviewHow to use our weather pages